User: anonymous   Login
Location: Bodest
(46.3000°N, 22.5667°E)
Time: 17:11:30
(UTC+00:00)
Language:

COSMO-SKYMED 1 - Orbit

View from above orbital plane
View from above orbital plane
View from above satellite
View from above satellite

Ground track
Ground track

The orbit data is extracted from the following two-line orbital elements,

1 31598U 07023A   22025.07696021  .00000314  00000-0  45954-4 0  9999
2 31598  97.8820 210.8129 0001507  96.1693 263.9690 14.82160719791722
Epoch (UTC): 25 January 2022 01:50:49
Eccentricity: 0.0001507
inclination: 97.8820°
perigee height: 621 km
apogee height: 623 km
right ascension of ascending node: 210.8129°
argument of perigee: 96.1693°
revolutions per day: 14.82160719
mean anomaly at epoch: 263.9690°
orbit number at epoch: 79172

The dashed part of the orbit path shows where the satellite is in the earth's shadow,  

DLR